Location: Montr�al
(45.5000°N, 73.5830°W)
Time: 02:45:38

ISS - Visible Passes

Search period start: 25 October 2016 00:00
Search period end: 04 November 2016 00:00
Orbit: 400 x 409 km, 51.6° (Epoch: 25 October)

Date Brightness Start Highest point End Pass type
(mag) Time Alt. Az. Time Alt. Az. Time Alt. Az.
31 Oct 0.1 06:28:43 10° SSE 06:29:35 11° SE 06:30:26 10° ESE visible
02 Nov -0.9 06:18:08 10° SSW 06:20:47 23° SE 06:23:27 10° E visible
03 Nov -0.4 05:26:54 10° SSE 05:28:32 13° SE 05:30:10 10° ESE visible
03 Nov -3.3 07:01:17 10° WSW 07:04:32 85° SSE 07:07:49 10° ENE visible
